Barter Island, AK

11:23 PM AKDT on March 24, 2017 (GMT -0800)
Barter Island LRRS

Weather History for PABA - September, 2012

Change the Weather History Date:

Wednesday, September 19, 2012

  Actual Average Record
Temperature  
Mean Temperature 42 °F -  
Max Temperature 41 °F 33 °F 45 °F (1998)
Min Temperature 39 °F 28 °F 23 °F (2004)
Degree Days  
Heating Degree Days 22    
Moisture  
Dew Point 37 °F    
Average Humidity 80    
Maximum Humidity 93    
Minimum Humidity 68    
Precipitation  
Precipitation 0.00 in - - ()
Sea Level Pressure  
Sea Level Pressure 29.64 in    
Wind  
Wind Speed 8 mph (SE)    
Max Wind Speed 21 mph    
Max Gust Speed -    
Visibility 10 miles    
Events Rain    
Averages and records for this station are not official NWS values.
T = Trace of Precipitation, MM = Missing Value Source: NWS Daily Summary

Daily Weather History Graph

Daily Weather History Graph

Search for Another Location

Airport or City:

Trip Planner

Search our weather history database for the weather conditions in past years. The results will help you decide how hot, cold, wet, or windy it might be!

Date:

Astronomy

Sep. 19, 2012 Rise Set
Actual Time 7:05 AM AKDT 7:48 PM AKDT
Civil Twilight 6:02 AM AKDT 8:50 PM AKDT
Nautical Twilight 4:39 AM AKDT 10:11 PM AKDT
Astronomical Twilight 2:25 AM AKDT 12:16 AM AKDT
Moon 3:13 PM AKDT (9/19) 6:11 PM AKDT (9/19)
Length of Visible Light 14h 47m
Length of Day
12h 42m
Waxing Crescent, 18% of the Moon is Illuminated
Sep 19
Waxing Crescent
Sep 22
First Quarter
Sep 29
Full
Oct 7
Last Quarter
Oct 15
New

Hourly Weather History & Observations

Time (AKDT) Temp. Windchill Dew Point Humidity Pressure Visibility Wind Dir Wind Speed Gust Speed Precip Events Conditions
12:01 AM 44.1 °F 42.5 °F 37.0 °F 76% 29.55 in 10.0 mi South 3.5 mph - N/A   Mostly Cloudy
1:01 AM 42.1 °F - 37.0 °F 82% 29.58 in 10.0 mi Calm Calm - N/A   Overcast
2:01 AM 39.9 °F 36.7 °F 37.9 °F 93% 29.59 in 10.0 mi SSE 4.6 mph - 0.00 in Rain Light Rain
3:01 AM 43.0 °F 36.4 °F 36.0 °F 76% 29.62 in 10.0 mi West 12.7 mph - 0.00 in   Overcast
4:01 AM 43.0 °F 41.3 °F 36.0 °F 76% 29.62 in 10.0 mi SSW 3.5 mph - N/A   Partly Cloudy
5:01 AM 44.1 °F 38.6 °F 36.0 °F 73% 29.65 in 10.0 mi West 10.4 mph - N/A   Mostly Cloudy
6:01 AM 43.0 °F 39.5 °F 36.0 °F 76% 29.65 in 10.0 mi SW 5.8 mph - N/A   Mostly Cloudy
7:01 AM 42.1 °F 38.4 °F 37.0 °F 82% 29.67 in 10.0 mi SSW 5.8 mph - N/A   Scattered Clouds
8:01 AM 42.1 °F 36.6 °F 37.9 °F 85% 29.68 in 10.0 mi South 9.2 mph - N/A   Overcast
9:01 AM 41.0 °F 34.7 °F 37.0 °F 86% 29.69 in 10.0 mi South 10.4 mph - N/A   Mostly Cloudy
10:01 AM 43.0 °F 39.5 °F 37.0 °F 80% 29.70 in 10.0 mi South 5.8 mph - N/A   Mostly Cloudy
11:01 AM 45.0 °F 40.6 °F 39.0 °F 80% 29.70 in 10.0 mi ESE 8.1 mph - N/A   Clear
12:01 PM 46.9 °F - 39.9 °F 77% 29.70 in 10.0 mi ESE 11.5 mph - N/A   Clear
1:01 PM 46.9 °F - 37.0 °F 68% 29.68 in 10.0 mi ESE 15.0 mph - N/A   Clear
2:01 PM 46.9 °F - 37.9 °F 71% 29.68 in 10.0 mi ESE 12.7 mph - N/A   Clear
3:01 PM 46.0 °F 41.0 °F 37.0 °F 71% 29.68 in 10.0 mi East 10.4 mph - N/A   Clear
4:01 PM 42.1 °F 34.9 °F 37.0 °F 82% 29.66 in 10.0 mi East 13.8 mph - N/A   Clear
5:01 PM 42.1 °F 35.2 °F 37.9 °F 85% 29.65 in 10.0 mi East 12.7 mph - N/A   Clear
6:01 PM 43.0 °F 36.0 °F 37.9 °F 82% 29.63 in 10.0 mi East 13.8 mph - N/A   Clear
7:01 PM 44.1 °F 36.2 °F 37.9 °F 79% 29.61 in 10.0 mi ESE 18.4 mph - N/A   Clear
8:01 PM 44.1 °F 35.9 °F 37.9 °F 79% 29.59 in 10.0 mi East 19.6 mph - N/A   Clear
9:01 PM 43.0 °F 34.8 °F 37.0 °F 80% 29.57 in 10.0 mi East 18.4 mph - N/A   Clear
10:01 PM 42.1 °F 33.1 °F 37.9 °F 85% 29.56 in 10.0 mi East 20.7 mph - N/A   Clear
11:01 PM 41.0 °F 32.2 °F 37.9 °F 89% 29.54 in 10.0 mi East 18.4 mph - 0.00 in Rain Light Rain